Find Starlink 4378

NORAD ID: 53476 Int'l Des: 2022-099 Owner: SPXS Country: US Constellation: starlink operational
LEOCIRCULARRETROGRADESSO

Live Position

Loading 3D Globe...

About Starlink 4378

Description loading...

Upcoming Passes

Passes for default location (London). Set your location on the main map for personalized predictions.

Altitude History

Loading altitude history...

Two-Line Element Set

1 53476U 22099M 26121.89295448 .00015312 00000-0 10654-2 0 9998
2 53476 97.5470 242.5768 0000423 23.4792 336.6454 15.05568649203981
Epoch: May 1, 2026 • Age: 15 hours

Current Status

Altitude 559.5 km
Velocity 7.58 km/s
Sub-Earth Point -25.22°S, 8.77°E
Launch Date Aug 12, 2022
Age 3.7 years
Type internet

Technical Details

Classification Payload
Mass 300.00 kg
Dry Mass 275.00 kg
Total Mass 300.00 kg
Length 0.20 m
Diameter 2.80 m
Span 9.00 m
Shape Box + pan
Manufacturer SPXS
Bus Type Starlink
Phase Status In Orbit
Owner/State SPXS/US

Most Searched